Regional Weather Roundup
Issued by NWS Portland, ME

Home | Current Version | Previous Version | Text Only | Print | Product List | Glossary On
Versions: 1 2 3 4 5 6 7 8 9 10 11 12 13 14 15 16 17 18 19 20 21 22 23 24 25 26 27 28 29 30 31 32 33 34 35 36 37 38 39 40 41 42 43 44 45 46 47 48 49 50
000
ASUS41 KGYX 251810
RWRGYX
WEATHER ROUNDUP FOR MAINE AND NEW HAMPSHIRE
NATIONAL WEATHER SERVICE GRAY ME
200 PM EDT MON MAY 25 2015

MEZ002-005-006-010-012-015-018-020-021-024-026-027-029-251900-
MAINE

CITY           SKY/WX    TMP DP  RH WIND       PRES   REMARKS
PORTLAND       PTSUNNY   83  51  33 W16G28    30.15F
6HR MIN TEMP:  65; 6HR MAX TEMP:  84;

BAR HARBOR     PTSUNNY   73  48  40 SW13      30.12S
WISCASSET      CLOUDY    79  49  34 SW9       30.15F
6HR MIN TEMP:  61; 6HR MAX TEMP:  80;

ROCKLAND       PTSUNNY   73  54  49 S9        30.13S
FRYEBURG       CLOUDY    79  50  36 SW13G18   30.15F
6HR MIN TEMP:  66; 6HR MAX TEMP:  81;

LEWISTONAUBURN CLOUDY    79  48  34 SW14      30.15F
AUGUSTA        CLOUDY    77  47  34 W9        30.14F
6HR MIN TEMP:  61; 6HR MAX TEMP:  77;

WATERVILLE       N/A    N/A N/A N/A MISG        N/A
BANGOR         CLOUDY    79  47  32 W10G17    30.11F
6HR MIN TEMP:  66; 6HR MAX TEMP:  80;

GREENVILLE       N/A     72  47  40 MISG      30.11F
6HR MIN TEMP:  64; 6HR MAX TEMP:  72;

MILLINOCKET    CLOUDY    78  46  32 W9G20     30.08F
6HR MIN TEMP:  61; 6HR MAX TEMP:  80;

HOULTON        PTSUNNY   80  46  30 W16G23    30.02F
6HR MIN TEMP:  60; 6HR MAX TEMP:  80;

PRESQUE ISLE   PTSUNNY   79  45  29 SW14G22   30.00F
6HR MIN TEMP:  59; 6HR MAX TEMP:  79;

FRENCHVILLE    PTSUNNY   75  45  34 SW7G20    29.98F
6HR MIN TEMP:  53; 6HR MAX TEMP:  77;

CARIBOU        PTSUNNY   79  45  29 W13G23    29.99F
6HR MIN TEMP:  55; 6HR MAX TEMP:  79; 6HR PCP: TRACE;

$$

NHZ002-005-008-009-011-012-014-251900-
NEW HAMPSHIRE

CITY           SKY/WX    TMP DP  RH WIND       PRES   REMARKS
PORTSMOUTH     CLOUDY    80  48  32 W10       30.16F
ROCHESTER      CLOUDY    79  49  34 VRB6      30.17F
6HR MIN TEMP:  63; 6HR MAX TEMP:  82;

NASHUA         CLOUDY    76  55  47 VRB6      30.21S
MANCHESTER     CLOUDY    77  52  41 S7        30.18S
6HR MIN TEMP:  63; 6HR MAX TEMP:  79; 6HR PCP: TRACE;

CONCORD        CLOUDY    79  50  36 VRB6      30.18F
6HR MIN TEMP:  61; 6HR MAX TEMP:  79;

LACONIA        CLOUDY    75  48  38 SW14      30.16F
PLYMOUTH       LGT RAIN  73  56  54 NW5       30.17F
BERLIN         CLOUDY    75  48  38 SW10      30.16F
6HR MIN TEMP:  53; 6HR MAX TEMP:  76;

WHITEFIELD     CLOUDY    73  49  42 VRB7      30.17F
6HR MIN TEMP:  55; 6HR MAX TEMP:  76;

JAFFREY        CLOUDY    73  51  46 S9        30.22F
6HR MIN TEMP:  59; 6HR MAX TEMP:  76;

KEENE          CLOUDY   N/A N/A N/A CALM      30.20F
LEBANON        CLOUDY    69  56  62 CALM      30.17F
6HR MIN TEMP:  60; 6HR MAX TEMP:  69; 6HR PCP: TRACE;

MT WASHINGTON  LGT RAIN  46  43  87 W29         N/A
6HR MIN TEMP:  44; 6HR MAX TEMP:  49; 6HR PCP: TRACE;

$$

VTZ005-007-008-251900-
VERMONT

CITY           SKY/WX    TMP DP  RH WIND       PRES   REMARKS
ST JOHNSBURY     N/A     72  51  47 MISG      30.14F
BURLINGTON     CLOUDY    70  55  59 S9        30.13F
$$

MAZ007-012-024-CTZ003-RIZ002-NYZ038-NYZ072-251900-
SOUTHERN NEW ENGLAND AND NY

CITY           SKY/WX    TMP DP  RH WIND       PRES   REMARKS
BOSTON         CLOUDY    79  49  34 SW10G20   30.20F
WORCESTER      CLOUDY    71  56  58 S9        30.24F
NANTUCKET      CLOUDY    63  54  72 SW13      30.29F
PROVIDENCE     PTSUNNY   74  57  55 SE12      30.23F
HARTFORD       PTSUNNY   82  56  40 S12       30.17F
ALBANY         PTSUNNY   80  54  40 S12G23    30.13F
NEW YORK CITY  MOSUNNY   82  58  43 S13       30.20F
$$

ANZ081-ANZ082-ANZ150-NHZ014-MEZ023>029-251900-
COASTAL MARINE OBSERVATIONS

STATION/POSITION TIME  TEMP    WIND        PRES    WAVE
                       AIR SEA DIR/SP/G            HT/PER
                 (UTC) (F)     (DEG/KT/KT) (MB)    (FT/S)
MOUNT DESERT ROC 1800   49     200/ 20/ 21   N/A
MATINICUS ROCK   1800   51     220/ 21/ 21   N/A
ISLE OF SHOALS   1800   70     190/  9/ 10   N/A
JEFFREYS LEDGE   1703      50                N/A     2/ 3
CASHES LEDGE BUO 1750   54 49                N/A     3/ 5
GEORGES BANK BUO 1750   55 49  210/ 12/ 12   N/A     3/ 6
$$

.............KEY..............
   WCI - WIND CHILL
   TC  - TEMPERATURE IN CELSIUS
   VSB - VISIBILITY IN MILES
   HX  - HEAT INDEX
   FAIR- INDICATES FEW OR NO CLOUDS BELOW 12,000 FT, WITH NO
         SIGNIFICANT WEATHER AND/OR OBSTRUCTIONS TO VISIBILITY.




USA.gov is the U.S. government's official web portal to all federal, state and local government web resources and services.